FDX853 OMDB-OKKK

Flight info

Callsign FDX853
Flight time N/A
Altitude 28000
Route RIDAP M557 TUMAK M600 KUMBO/N0435F240 A453 DEBTI
Aircraft MD11/H-SDE1E2E3FGHIJ2J3J4J5M1RWXY/LB1D1

Departure

Time 2026-04-23 12:04
Airport Dubai International Airport (OMDB)

Arrival

Time N/A
Airport Kuwait International Airport (OKKK)
Time Latitude Longitude Altitude Speed Heading
2026-04-23 11:22 25.23928 55.38132 29 ft 0 kts 211°
2026-04-23 11:52 25.23940 55.38140 28 ft 4 kts 211°
2026-04-23 11:52 25.23961 55.38155 28 ft 2 kts 211°
2026-04-23 11:52 25.23980 55.38169 27 ft 4 kts 233°
2026-04-23 11:52 25.23990 55.38190 29 ft 4 kts 273°
2026-04-23 11:53 25.23984 55.38216 24 ft 4 kts 300°
2026-04-23 11:53 25.23971 55.38241 28 ft 4 kts 301°
2026-04-23 11:53 25.23966 55.38249 28 ft 0 kts 301°
2026-04-23 11:57 25.23967 55.38248 28 ft 1 kts 301°
2026-04-23 11:57 25.23972 55.38238 25 ft 2 kts 301°
2026-04-23 11:58 25.23987 55.38211 25 ft 6 kts 301°
2026-04-23 11:58 25.24018 55.38155 28 ft 10 kts 301°
2026-04-23 11:58 25.24024 55.38145 29 ft 0 kts 301°
2026-04-23 11:59 25.24030 55.38135 29 ft 4 kts 301°
2026-04-23 11:59 25.24049 55.38101 29 ft 7 kts 301°
2026-04-23 11:59 25.24083 55.38039 29 ft 12 kts 302°
2026-04-23 11:59 25.24135 55.37949 28 ft 14 kts 302°
2026-04-23 12:00 25.24193 55.37846 29 ft 13 kts 302°
2026-04-23 12:00 25.24259 55.37787 29 ft 12 kts 359°
2026-04-23 12:00 25.24291 55.37798 30 ft 1 kts 25°
2026-04-23 12:00 25.24306 55.37805 29 ft 3 kts 23°
2026-04-23 12:01 25.24326 55.37816 32 ft 4 kts 28°
2026-04-23 12:01 25.24362 55.37844 32 ft 8 kts 47°
2026-04-23 12:01 25.24390 55.37878 34 ft 9 kts 32°
2026-04-23 12:01 25.24506 55.37950 35 ft 24 kts 33°
2026-04-23 12:02 25.24603 55.38022 32 ft 6 kts 33°
2026-04-23 12:02 25.24626 55.38038 32 ft 5 kts 33°
2026-04-23 12:02 25.24657 55.38059 33 ft 6 kts 31°
2026-04-23 12:02 25.24696 55.38084 36 ft 8 kts 30°
2026-04-23 12:03 25.24755 55.38097 38 ft 10 kts 348°
2026-04-23 12:03 25.24810 55.38023 37 ft 21 kts 301°
2026-04-23 12:03 25.25050 55.37590 39 ft 113 kts 301°
2026-04-23 12:03 25.25599 55.36600 83 ft 182 kts 304°
2026-04-23 12:04 25.26248 55.35317 811 ft 193 kts 302°
2026-04-23 12:04 25.26824 55.34053 2118 ft 172 kts 301°
2026-04-23 12:04 25.27458 55.32884 2797 ft 182 kts 302°
2026-04-23 12:04 25.28168 55.31668 3312 ft 195 kts 301°
2026-04-23 12:05 25.28975 55.30278 3816 ft 236 kts 301°
2026-04-23 12:05 25.30010 55.28620 4032 ft 288 kts 303°
2026-04-23 12:05 25.31245 55.26692 4603 ft 316 kts 303°
2026-04-23 12:05 25.32540 55.24680 5794 ft 324 kts 303°
2026-04-23 12:06 25.33714 55.22865 8274 ft 258 kts 302°
2026-04-23 12:06 25.34709 55.21325 9633 ft 254 kts 301°
2026-04-23 12:06 25.35744 55.17791 9981 ft 248 kts 267°
2026-04-23 12:07 25.35711 55.15761 10179 ft 280 kts 265°
2026-04-23 12:07 25.35636 55.13470 10339 ft 316 kts 265°
2026-04-23 12:07 25.35544 55.10904 10528 ft 348 kts 265°
2026-04-23 12:07 25.35452 55.08209 11450 ft 354 kts 265°
2026-04-23 12:08 25.35359 55.05464 12467 ft 358 kts 265°
2026-04-23 12:08 25.35288 55.03401 13182 ft 361 kts 265°
2026-04-23 12:08 25.35220 55.01436 13782 ft 367 kts 265°
2026-04-23 12:08 25.35116 54.98545 14110 ft 386 kts 265°
2026-04-23 12:09 25.35005 54.95498 14473 ft 403 kts 265°
2026-04-23 12:09 25.34914 54.92394 14817 ft 417 kts 269°